星链-1598 (STARLINK-1598 )

导读 | 星芒AI

STARLINK-1598 是 SpaceX 星链计划中的一颗低轨通信卫星,属于第 16 批星链卫星(Batch 16)。该卫星于 2021 年 5 月 28 日随猎鹰 9 号火箭从肯尼迪航天中心发射升空,进入近地轨道,旨在为全球提供高速互联网服务。作为星链星座的一部分,STARLINK-1598 采用先进推进和通信技术,支持全球范围内的宽带连接,尤其服务于偏远地区。其运行轨道高度约 550 公里,设计寿命数年,可进行轨道调整和自主运行。

基本信息
目录编号:
46160
目录名称:
STARLINK-1598
国际标识:
2020-057AV
轨道中心:
EARTH
卫星名称:
星链-1598
卫星全名:
星链-1598 (STARLINK-1598 )
卫星状态:
在轨 (已飞行1898 天)
发射日期:
2020-08-18 UTC
国别 :
美国 (US)
星等 :
--
轨道信息
数据来源 国际轨道数据
星历时间: 2025-10-29T15:41:37+0800
8小时前
查看轨道信息
半长轴: 6925.321km
偏心率: 0.000159
轨道倾角: 53.053°
近地点辐角 91.746°
升交点赤经 166.356°
平近点角 268.371°
近地点: 546.084km
远地点: 548.288km
周期: 95.592分钟
每日圈数: 15.064091
详细信息
固有亮度:
5
最大亮度:
2.5
卫星平台:
Starlink V1.0
覆盖范围:
全球
运营商:
太空探索技术公司
运营商所在国:
美国
制造商(研发单位):
太空探索技术公司
制造商所在国:
美国
使用方式:
暂无
卫星简介
星链(Starlink)计划是由太空探索技术公司(SpaceX)提出的一个巨型低轨卫星互联网星座项目,计划在2019年至2024年间在太空搭建由约1.2万颗卫星组成的“星链”网络,其中1584颗将部署在地球上空550千米处的近地轨道,并从2020年开始工作。该卫星仍在工作。
2D轨道图
3D轨道图
轨道高度分析图
轨道倾角分析图
轨道综合分析图
查看轨道综合分析图